DELTA 1 DEB, 42632

Orbit data source: Space-Track

DELTA 1 DEB, 42632 is space debris in SSO originally from a launch on Thu, 12 Jun 1975 UTC launched from the Air Force Western Test Range (AFWTR). Debris objects in space refer to the collection of defunct objects orbiting the Earth. Examples of debris include non-operational satellites, rocket bodies, and fragments generated from explosions, collisions, or faulty payload assembly.

Loading next visibility...
Identifier
42632, 1975-052LR
Orbit
SSO
Country
Flag of USUS
Related business
Manufacturer
Unknown
Mission
Spacecraft
Bus & Motor
Unknown
Mass
Unknown
Launch date (UTC)
1975-06-12 (51 years ago)
Launch vehicle
Unknown
Launch site
Air Force Western Test Range (AFWTR)
Object type
Payload
Rocket body
Debris
Shape & HBR
Unknown shape, 0.1 m
Radar Cross Section
Small (<0.1 m²)

Expand to show TLE details & history
Last TLE update: 5 hours ago

TLE from 5 hours ago
0 DELTA 1 DEB
1 42632U 75052LR  26127.16299580  .00000130  00000-0  58684-3 0  9992
2 42632  99.5812 198.5441 0402367 122.4402 241.6266 12.70108290535114
Epoch: 2026-05-07T03:54Z
TLE epoch observation values (Epoch: 2026-05-07T03:54:42.837Z)
Latitude
-0.00001°
Longitude
-85.14747°
Altitude
1,542.033 km
Speed
7.023 km/s
True Right ascension
13h 14m 10s
True Declination
0° 00' 00"
Sunlit
Object was in full shadow at epoch
Visualization orbit readout
Latitude
Unknown
Longitude
Unknown
Altitude
Unknown
Speed
Unknown
Apparent Right ascension
Unknown
Apparent Declination
Unknown
Sunlit
N/A
Visualization observer readout
Local Sidereal Time
17:24:52
Azimuth
Unknown
Elevation
Unknown
Doppler factor
Unknown
Orbital elements
Apogee altitude
1,691.013 km
Perigee altitude
1,066.779 km
Semi-major axis
7,757.033 km
Eccentricity
0.04024
Inclination
99.5812°
RAAN
198.5441°
Arg. of periapsis
122.4402°
True anomaly
237.66764°
Mean anomaly
241.6266°
Eccentric anomaly
239.63741°
Mean motion
3.17687 °/min
Orbital period
113.32 mins
BSTAR
0.00058684
Loading maneuver chart data...
Computing Atmospheric mass density...
Loading historical data...
Loading historical data...
Loading historical data...
Loading historical data...
Loading historical data...
Loading historical data...
Loading historical data...

Documentation

Showing up to 5 results
|